Flag for Germany Past Weather in Weiden in der Oberpfalz, Bavaria, Germany — Yesterday and Last 2 Weeks

45 °F


Feels Like: 45 °F
Forecast: 40 / 53 °F
Wind: No wind

Location: Grafenwoehr

Current Time: Oct 26, 2016 at 11:34:25 PM

Latest Report: Oct 26, 2016 at 10:58 PM

Visibility: N/A

Pressure: 30.41 "Hg

Humidity: 100%

Dew Point: 45 °F

Location of Weiden in der OberpfalzLocation

Past Weather in Weiden in der Oberpfalz — Graph


Weiden in der Oberpfalz Temperature Yesterday

Maximum temperature yesterday: 56 °F (at 11:58 AM)
Minimum temperature yesterday: 48 °F (at 11:58 PM)
Average temperature yesterday: 51 °F

High & Low Weather Summary for the Past Weeks

High65 °F (Oct 16, 2:58 PM)100% (Oct 12, 7:00 AM)30.41 "Hg (Oct 12, 7:00 AM)
Low32 °F (Oct 12, 5:58 AM)49% (Oct 16, 3:58 PM)29.52 "Hg (Oct 20, 3:58 AM)
Average46 °F90%30.05 "Hg
* Reported Oct 11 9:58 PM — Oct 26 9:58 PM, Weiden in der Oberpfalz, Weather by CustomWeather, © 2016

Note: Actual official high and low records may vary slightly from our data, if they occured in-between our weather recording intervals... More about our weather records


Weiden in der Oberpfalz Weather History for the Previous 24 Hours

Scroll right to see more
Time TempWeatherWind HumidityBarometerVisibility
9:58 PM
Wed, Oct 26
46 °FOvercast.No wind93%30.41 "HgN/A
8:58 PM46 °FPassing clouds.No wind93%30.39 "HgN/A
7:58 PM48 °FOvercast.No wind87%30.37 "HgN/A
6:58 PM50 °FOvercast.3 mph82%30.36 "HgN/A
5:58 PM52 °FOvercast.No wind77%30.35 "HgN/A
4:58 PM54 °FOvercast.No wind71%30.34 "HgN/A
3:58 PM55 °FOvercast.No wind63%30.33 "HgN/A
2:58 PM53 °FOvercast.No wind72%30.33 "HgN/A
1:59 PM54 °FMostly cloudy.No wind72%30.33 "HgN/A
12:58 PM54 °FOvercast.No wind73%30.34 "HgN/A
11:58 AM52 °FOvercast.No wind82%30.35 "HgN/A
10:58 AM50 °FOvercast.No wind87%30.35 "HgN/A
9:58 AM48 °FOvercast.No wind94%30.35 "HgN/A
8:58 AM48 °FFog.No wind100%30.34 "Hg6 mi
7:58 AM47 °FFog.No wind100%30.34 "Hg6 mi
6:58 AM47 °FMostly cloudy.No wind100%30.32 "HgN/A
5:58 AM47 °FFog.No wind100%30.30 "Hg4 mi
4:58 AM48 °FFog.No wind100%30.29 "Hg6 mi
3:58 AM47 °FFog.No wind100%30.28 "Hg6 mi
2:58 AM47 °FMostly cloudy.No wind100%30.28 "HgN/A
1:58 AM47 °FFog.No wind100%30.28 "Hg1 mi
1:04 AM48 °FMostly cloudy.No wind100%30.26 "HgN/A
12:58 AM48 °FMostly cloudy.No wind100%30.27 "HgN/A
11:58 PM
Tue, Oct 25
48 °FLow clouds.No wind100%30.26 "HgN/A
Weather by CustomWeather, © 2016

See weather overviewHow to use our weather pages